RH
19 21 24 19 19 18 18 20 20 15 12 12 13 12 22 22 22 22 23 23 25 25 24 25 27 28 29 33 31 34 37 38 31 28 30 32 32 32 32 34 42 44 48 52
21 24 18 16 17 18 19 22 21 16 11 12 13 13 11 21 22 20 22 23 24 24 26 28 29 31 32 33 32 31 32 36 32 26 29 34 34 31 32 33 38 41 46 52
28 21 16 18 19 20 20 22 21 19 13 10 12 14 13 18 21 20 20 21 22 25 28 29 30 32 33 33 33 29 30 33 37 36 28 31 30 30 31 34 34 40 42 47
21 20 20 20 20 18 23 15 17 17 17 17 12 15 11 16 22 22 22 24 24 25 26 27 29 31 34 35 33 30 31 31 33 39 35 40 35 35 36 35 36 39 41 43
22 22 21 23 20 17 19 15 16 17 18 17 14 15 12 12 22 22 23 24 25 26 27 28 28 28 28 34 35 34 32 33 36 39 41 37 41 36 34 36 43 42 41 41
18 15 17 18 17 16 15 16 16 16 18 24 18 16 13 13 17 19 20 23 26 27 27 26 26 27 30 39 39 37 31 32 38 39 41 44 46 44 40 41 41 40 41 41
23 20 17 15 20 18 17 22 30 30 27 26 14 16 16 16 14 15 18 23 28 29 29 28 28 28 31 35 37 36 31 33 38 40 42 42 44 43 42 42 41 46 44 45
28 30 19 16 19 21 21 22 32 36 30 23 14 19 14 12 14 17 16 21 28 29 29 28 29 29 30 36 37 35 32 33 36 38 41 40 41 37 38 42 44 43 44 45
27 22 16 16 15 17 22 26 20 32 28 33 23 16 17 16 16 20 19 24 30 30 30 29 29 31 34 36 39 39 33 32 35 37 40 39 40 43 44 47 46 44 46 42
28 39 22 17 15 15 19 16 30 28 45 42 26 22 19 21 21 20 21 25 28 29 29 30 29 36 35 35 37 42 36 35 36 36 39 37 41 42 45 46 48 49 48 48
28 38 30 18 22 23 22 24 24 23 29 35 32 22 15 17 20 23 23 25 28 29 30 31 33 37 36 36 37 41 39 38 40 39 41 44 45 45 45 45 47 48 50 48
32 42 50 31 20 16 18 23 28 53 40 39 42 30 16 17 18 22 24 25 26 30 31 31 36 41 39 38 36 39 44 39 41 41 43 45 47 46 46 48 48 51 50 50
39 71 86 49 35 23 25 22 22 31 44 46 62 39 18 19 20 22 26 28 30 32 31 34 40 46 60 49 45 44 46 44 41 36 41 45 50 49 48 49 50 49 49 49
60 62 75 56 33 33 52 32 24 27 44 37 37 34 28 23 23 23 26 29 30 31 30 36 43 61 79 64 69 50 55 52 46 37 40 44 48 49 48 49 50 51 48 48
59 87 57 40 29 27 25 36 35 31 25 37 31 29 26 26 25 28 26 26 28 29 32 38 44 55 48 51 49 46 46 42 39 36 39 42 45 44 45 49 51 48 48 46
79 100 93 90 58 49 46 35 30 35 33 26 31 40 26 19 21 20 24 24 26 30 32 39 40 42 40 41 41 40 41 39 36 36 39 40 42 41 43 44 44 44 46 45
98 94 97 84 49 52 95 77 50 42 38 38 38 27 22 26 23 20 24 24 27 30 34 39 37 37 36 37 37 39 37 37 36 37 35 38 39 40 40 38 38 42 43 42
95 89 96 85 61 94 40 23 26 35 34 33 33 31 29 26 20 16 18 23 30 31 35 36 35 34 35 37 37 40 33 37 39 38 36 36 39 38 36 39 39 41 40 40
78 80 89 86 80 56 50 33 32 34 34 26 32 29 21 21 36 40 26 24 30 34 34 33 32 34 36 36 36 34 36 36 37 39 39 38 39 38 37 39 41 39 39 39
56 77 80 66 73 78 40 23 25 27 46 25 26 28 24 31 43 36 32 30 33 32 31 32 32 33 34 34 32 33 37 38 39 42 41 38 38 37 38 40 40 39 37 36
80 99 95 78 78 49 24 18 24 47 45 28 24 26 31 47 44 38 34 35 32 31 32 31 32 33 32 31 32 36 37 42 42 41 40 38 36 36 36 39 38 38 37 39
84 87 80 79 93 80 24 25 43 43 36 36 30 29 47 51 46 42 38 37 34 33 33 31 32 31 30 27 30 31 37 41 42 41 38 38 40 36 34 40 40 40 42 47
66 80 75 54 50 35 35 36 32 39 40 41 40 41 52 49 44 40 39 37 35 34 31 29 30 33 31 28 28 32 35 36 44 46 46 45 46 45 43 45 48 51 54 55
47 49 82 61 44 35 37 38 42 38 40 39 40 45 44 45 40 41 37 35 35 32 31 28 30 32 35 32 30 29 37 37 48 68 75 69 75 68 61 60 61 68 80 74
72 72 65 59 45 38 36 40 40 42 42 42 41 40 40 42 41 39 38 35 34 33 30 28 30 35 34 31 31 32 38 40 43 70 77 79 78 76 73 70 75 73 76 73
34 39 71 70 49 66 48 54 49 57 57 48 43 42 38 38 39 37 37 36 36 35 31 32 33 34 31 30 34 38 39 44 48 58 67 72 74 76 75 72 72 77 79 77
Wind_Speed
12 11 14 16 16 19 19 15 19 11 9 10 16 18 20 17 18 18 18 18 17 16 14 11 10 9 9 7 7 7 7 7 5 6 6 5 5 5 5 6 8 10 11 12
11 15 16 15 13 13 16 17 20 17 6 4 16 13 13 18 20 20 20 19 18 16 15 13 11 9 7 7 7 7 7 7 7 5 5 4 5 5 5 6 6 8 10 11
18 13 7 12 12 15 17 18 16 16 8 12 16 15 18 18 18 19 19 18 18 18 16 14 12 11 9 8 6 6 7 7 8 7 5 5 4 5 5 7 7 9 9 10
20 19 17 13 16 15 17 17 16 14 13 14 18 10 16 23 22 21 20 20 19 19 17 15 14 12 10 8 6 7 6 7 7 8 6 7 7 7 7 6 8 9 10 10
17 14 16 19 19 16 14 6 9 15 16 17 16 10 14 22 20 24 24 22 20 19 18 17 15 13 11 9 7 6 7 6 6 6 7 6 7 7 7 8 11 10 9 10
22 5 11 16 16 11 3 8 8 10 11 17 17 16 13 15 24 20 21 21 20 18 18 17 15 13 11 8 7 6 6 6 5 5 6 7 8 9 8 9 8 8 8 8
24 25 15 9 12 9 13 12 8 11 12 14 10 17 16 7 8 14 19 22 21 20 19 17 17 14 13 11 9 7 5 6 5 5 6 6 7 8 9 9 8 11 8 8
21 20 27 19 24 17 20 19 12 13 13 15 12 10 9 8 11 5 5 19 20 21 19 19 18 16 14 12 10 7 6 5 5 5 5 6 7 6 6 8 8 8 8 9
10 23 7 12 20 23 17 22 21 20 20 12 14 15 10 10 10 10 10 16 20 20 20 20 19 16 14 12 10 7 6 6 5 4 5 6 7 8 7 9 8 7 9 10
7 8 2 13 6 18 21 9 12 9 13 21 18 19 17 14 16 15 14 16 18 20 20 19 17 15 13 11 10 7 5 5 4 5 5 6 7 7 8 7 9 10 10 11
17 9 3 1 13 17 13 17 15 13 16 12 16 15 8 7 14 16 15 16 18 20 19 18 16 15 13 11 11 8 6 5 4 4 5 6 6 7 7 7 9 9 11 11
15 5 14 18 13 6 9 15 19 10 14 8 12 20 6 4 3 11 14 15 16 17 18 17 16 15 13 11 10 8 6 4 2 3 5 5 6 6 6 7 8 9 11 10
6 2 5 12 14 10 10 17 15 13 9 17 15 20 5 4 10 12 13 15 16 19 20 18 17 15 10 10 9 8 5 4 2 3 3 4 5 6 7 8 9 10 10 11
3 12 14 14 18 6 7 14 17 20 15 22 22 27 23 12 10 10 11 15 18 19 20 18 17 14 9 8 6 7 6 4 1 1 3 3 5 6 7 8 9 9 10 10
5 8 20 26 30 29 27 18 16 21 23 22 22 22 25 20 14 15 15 14 18 20 20 19 17 14 13 12 10 8 6 4 1 1 2 3 5 6 7 7 9 9 10 10
4 4 5 13 24 28 26 25 27 21 23 25 26 29 27 22 15 20 19 18 18 19 20 19 18 17 16 13 11 8 6 3 1 1 2 4 5 6 7 7 9 9 10 10
9 6 5 8 14 15 14 26 29 30 29 28 23 27 22 23 21 17 16 17 17 19 19 19 17 16 13 11 9 8 6 5 2 1 2 4 6 6 7 8 9 10 10 11
8 11 7 4 11 14 13 15 18 23 26 27 29 28 27 19 19 10 11 13 15 18 19 18 15 13 12 10 8 7 6 5 3 2 3 5 6 7 8 8 9 10 10 11
12 8 6 6 8 12 12 13 14 14 19 18 23 27 19 4 8 1 5 9 13 17 17 16 15 14 12 10 8 7 6 5 3 3 4 5 6 7 8 8 9 9 10 10
18 14 12 12 13 8 10 7 7 2 17 12 17 19 21 14 10 9 10 11 16 18 17 16 16 13 11 10 9 8 6 5 4 4 4 5 6 7 7 8 9 9 10 10
7 5 15 15 15 17 22 25 8 11 13 8 11 13 11 14 3 15 14 17 18 18 18 17 15 12 11 9 9 7 7 5 4 3 4 5 6 7 7 8 8 9 10 10
14 9 10 11 12 20 16 14 16 6 4 2 3 5 13 13 15 18 19 19 19 19 18 16 13 12 11 9 9 8 7 5 3 3 4 5 6 6 6 9 8 10 10 10
15 11 10 12 9 13 10 15 9 4 4 3 6 11 15 19 20 20 20 19 18 17 15 13 13 12 10 8 7 8 6 6 4 5 6 6 6 7 7 8 9 8 10 9
8 14 12 14 18 20 11 5 3 2 3 5 8 14 18 19 20 21 19 18 16 14 13 12 13 12 11 9 7 8 6 5 6 5 4 5 4 6 6 6 6 6 6 8
7 3 15 12 16 15 12 7 7 5 6 7 11 13 16 20 20 20 18 17 15 13 12 12 11 11 11 9 8 7 6 4 5 4 2 3 3 4 5 5 4 5 5 5
15 12 9 10 8 9 12 3 7 9 7 8 13 15 17 18 19 18 16 14 14 13 12 11 12 11 10 9 8 7 6 6 3 4 2 3 3 4 4 5 6 6 2 4
Wind_Direction
196 241 229 237 232 259 283 287 289 246 147 220 226 236 169 187 201 198 194 190 185 184 153 159 141 140 121 110 96 74 67 46 31 38 26 13 3 13 9 8 3 2 357 358
239 244 258 256 262 270 256 256 259 261 138 241 260 236 213 180 207 206 202 196 190 179 170 166 162 149 129 118 110 98 78 56 37 45 28 5 357 352 356 359 347 10 353 351
245 253 1 277 242 244 244 248 251 259 204 216 268 246 230 186 205 214 207 200 194 186 182 176 168 158 148 131 120 102 85 69 51 8 25 5 350 349 358 348 348 352 352 348
255 247 243 251 251 238 252 233 249 262 242 254 194 267 244 189 202 209 203 205 195 188 186 178 177 168 155 139 126 105 81 64 57 31 27 8 359 353 350 342 347 333 343 342
233 231 241 226 243 239 258 313 249 243 249 255 222 248 256 187 198 210 204 201 198 188 186 181 181 171 160 150 135 118 108 80 65 46 25 5 5 350 340 337 338 330 343 337
251 220 269 248 238 243 256 246 239 246 249 247 242 251 250 208 199 211 201 202 197 186 187 183 182 162 153 151 149 138 132 102 73 45 31 15 360 343 340 340 325 340 328 343
231 237 228 249 233 214 209 225 227 222 221 245 242 230 237 141 169 219 198 194 189 190 188 186 177 180 163 163 157 152 142 116 88 50 25 6 355 337 336 339 340 332 336 339
222 234 219 191 227 209 218 222 229 237 249 262 224 234 245 44 124 129 239 179 183 193 185 187 180 187 167 161 159 160 147 122 82 47 16 3 357 350 336 349 335 325 334 330
252 245 230 200 214 235 222 221 241 267 280 268 265 258 156 160 162 165 175 174 183 189 186 188 183 182 164 167 159 156 150 119 95 46 14 2 356 349 342 335 330 338 329 334
264 270 229 155 228 233 248 229 237 229 250 246 253 257 274 185 181 175 188 187 185 187 185 187 181 169 171 167 152 147 142 118 83 26 15 1 349 348 337 331 336 335 334 327
224 238 146 137 210 216 214 238 239 244 234 258 268 264 309 352 180 184 184 187 185 186 183 185 174 170 174 167 158 149 144 128 60 17 6 355 347 340 338 335 337 342 326 338
207 252 232 223 240 258 289 237 228 239 248 251 261 261 83 30 147 168 182 185 184 183 184 183 171 170 174 173 159 149 144 125 81 34 355 348 340 336 346 343 336 342 330 336
351 180 249 230 220 187 241 238 244 233 233 245 247 257 294 204 185 179 186 183 186 186 182 179 172 173 171 162 158 150 139 107 16 2 347 357 334 339 344 343 341 332 334 332
295 255 259 273 277 218 195 246 245 235 230 244 232 254 250 202 207 201 200 185 191 189 183 179 171 139 134 156 154 150 144 134 284 352 346 359 344 341 344 341 335 332 331 331
214 238 249 255 262 269 272 238 251 241 241 244 261 252 260 263 214 229 229 210 193 187 184 179 175 154 173 175 169 165 156 151 184 27 348 357 350 341 345 340 327 333 330 330
174 205 219 261 277 281 281 271 260 252 262 245 248 253 248 263 283 256 217 211 199 188 186 175 177 166 179 172 165 152 148 136 98 55 0 3 347 346 346 337 332 333 330 332
166 167 195 248 268 281 258 246 260 252 250 250 242 244 251 260 266 236 203 204 200 187 180 178 174 168 163 162 149 148 143 134 107 49 14 5 356 344 344 342 338 336 334 333
172 201 229 226 258 247 257 256 244 249 254 252 253 250 259 269 267 209 224 209 190 178 169 169 157 153 153 144 134 130 136 121 127 63 10 9 357 346 346 341 340 335 338 332
202 194 227 236 259 294 296 262 260 256 267 260 246 251 247 152 86 21 255 189 182 156 154 150 144 151 147 141 138 136 135 138 116 55 22 7 356 349 341 345 338 338 334 336
193 218 234 229 239 241 250 359 39 186 262 260 246 240 232 151 209 208 187 152 136 139 138 142 142 144 140 137 143 135 135 129 88 45 15 2 0 349 345 338 335 339 334 339
199 197 230 235 250 257 254 262 177 217 266 311 221 225 197 176 248 130 140 134 136 131 136 137 146 144 130 136 138 136 134 101 78 53 22 9 2 353 345 339 340 345 342 342
196 213 216 231 241 244 250 266 201 284 320 293 217 169 141 125 131 133 130 131 136 138 139 147 137 134 134 140 148 134 111 107 92 52 35 22 13 358 349 342 354 350 349 345
227 203 229 216 237 243 265 283 212 316 303 235 151 135 135 142 143 141 140 142 140 146 145 143 135 132 126 130 134 118 106 109 91 53 27 23 9 354 4 349 2 352 352 348
285 289 214 241 258 272 254 241 303 261 222 197 153 143 150 149 144 143 146 144 147 146 146 140 141 135 126 122 109 106 115 114 94 88 42 16 10 346 9 344 1 353 358 351
208 270 238 234 249 273 273 260 223 209 140 142 140 149 149 147 148 149 145 146 145 142 144 147 137 135 134 132 123 116 114 121 112 100 48 36 0 6 353 358 3 345 6 2
246 237 214 252 263 248 265 326 212 184 141 150 153 148 152 148 149 145 142 143 144 148 144 141 138 139 141 133 124 118 114 103 97 149 109 58 347 357 359 349 346 135 246 281